TimeEDT,TemperatureF,Dew PointF,Humidity,Sea Level PressureIn,VisibilityMPH,Wind Direction,Wind SpeedMPH,Gust SpeedMPH,PrecipitationIn,Events,Conditions,WindDirDegrees,DateUTC
3:15 AM,62.6,62.4,99,30.09,7.0,Calm,Calm,-,N/A,,Clear,0,2013-08-12 07:15:00
3:35 AM,62.4,62.2,99,30.08,7.0,Calm,Calm,-,N/A,,Clear,0,2013-08-12 07:35:00
3:55 AM,62.1,61.9,99,30.09,7.0,Calm,Calm,-,N/A,,Clear,0,2013-08-12 07:55:00
4:15 AM,61.9,61.7,99,30.08,7.0,Calm,Calm,-,N/A,,Clear,0,2013-08-12 08:15:00
4:35 AM,61.3,61.2,99,30.09,5.0,Calm,Calm,-,N/A,,Clear,0,2013-08-12 08:35:00
4:55 AM,61.0,61.0,100,30.08,5.0,Calm,Calm,-,N/A,,Clear,0,2013-08-12 08:55:00
5:15 AM,60.8,60.8,100,30.08,5.0,Calm,Calm,-,N/A,,Clear,0,2013-08-12 09:15:00
5:35 AM,60.6,60.6,100,30.08,3.0,Calm,Calm,-,N/A,,Clear,0,2013-08-12 09:35:00
5:55 AM,60.6,60.6,100,30.08,3.0,Calm,Calm,-,N/A,,Clear,0,2013-08-12 09:55:00
6:15 AM,60.3,60.3,100,30.08,2.5,Calm,Calm,-,N/A,,Clear,0,2013-08-12 10:15:00
6:35 AM,60.3,60.3,100,30.08,2.5,Calm,Calm,-,N/A,,Clear,0,2013-08-12 10:35:00
6:55 AM,60.6,60.6,100,30.09,4.0,Calm,Calm,-,N/A,,Clear,0,2013-08-12 10:55:00
7:15 AM,62.2,62.2,100,30.09,4.0,Calm,Calm,-,N/A,,Clear,0,2013-08-12 11:15:00
7:50 AM,64.4,64.4,100,30.08,5.0,Calm,Calm,-,N/A,,Clear,0,2013-08-12 11:50:00
8:47 AM,69.8,64.4,83,30.08,10.0,Calm,Calm,-,N/A,,Clear,0,2013-08-12 12:47:00
9:50 AM,73.4,66.2,78,30.07,10.0,Calm,Calm,-,N/A,,Clear,0,2013-08-12 13:50:00
12:50 PM,78.8,68.0,69,30.04,10.0,South,5.8,-,N/A,,Mostly Cloudy,190,2013-08-12 16:50:00
1:55 PM,80.6,68.0,65,30.03,10.0,South,5.8,-,N/A,,Mostly Cloudy,170,2013-08-12 17:55:00
2:55 PM,80.6,66.2,61,30.01,10.0,SSW,6.9,-,N/A,,Mostly Cloudy,200,2013-08-12 18:55:00
3:47 PM,82.4,68.0,62,29.99,10.0,SW,5.8,-,N/A,,Scattered Clouds,230,2013-08-12 19:47:00
4:50 PM,82.4,69.8,66,29.96,10.0,SSW,3.5,-,N/A,,Mostly Cloudy,200,2013-08-12 20:50:00
5:47 PM,80.6,66.2,61,29.95,10.0,SSW,9.2,-,N/A,,Overcast,200,2013-08-12 21:47:00
6:47 PM,78.8,66.2,65,29.93,10.0,SW,4.6,-,N/A,,Scattered Clouds,220,2013-08-12 22:47:00
7:35 PM,77.9,68.2,72,29.92,10.0,South,3.5,-,N/A,,Overcast,190,2013-08-12 23:35:00
7:55 PM,76.5,69.4,79,29.92,10.0,South,3.5,-,N/A,,Mostly Cloudy,190,2013-08-12 23:55:00
8:15 PM,76.1,68.2,76,29.91,10.0,South,5.8,-,N/A,,Scattered Clouds,190,2013-08-13 00:15:00
8:35 PM,75.6,68.4,78,29.91,10.0,South,5.8,-,N/A,,Mostly Cloudy,190,2013-08-13 00:35:00
8:55 PM,75.4,68.9,80,29.91,10.0,South,4.6,-,N/A,,Overcast,190,2013-08-13 00:55:00
9:15 PM,75.0,68.9,81,29.92,10.0,SSW,5.8,-,N/A,,Overcast,200,2013-08-13 01:15:00
9:35 PM,75.2,68.9,81,29.91,10.0,SSW,4.6,-,N/A,,Mostly Cloudy,200,2013-08-13 01:35:00
9:55 PM,74.5,69.4,84,29.91,10.0,South,4.6,-,N/A,,Mostly Cloudy,190,2013-08-13 01:55:00
10:15 PM,73.9,70.3,88,29.92,10.0,South,6.9,-,N/A,Rain-Thunderstorm,Light Thunderstorms and Rain,190,2013-08-13 02:15:00
10:35 PM,71.8,69.8,93,29.91,3.0,SW,12.7,18.4,0.10,Rain-Thunderstorm,Heavy Thunderstorms and Rain,220,2013-08-13 02:35:00
10:55 PM,70.9,70.0,97,29.91,5.0,WSW,5.8,-,0.13,Rain-Thunderstorm,Light Thunderstorms and Rain,240,2013-08-13 02:55:00
11:15 PM,70.2,69.1,96,29.91,5.0,WSW,4.6,-,0.01,Rain,Light Rain,250,2013-08-13 03:15:00
11:35 PM,69.3,67.6,95,29.91,7.0,WSW,3.5,-,0.01,,Light Drizzle,240,2013-08-13 03:35:00
11:55 PM,69.1,67.3,94,29.90,7.0,Calm,Calm,-,0.01,,Scattered Clouds,0,2013-08-13 03:55:00